Regional Weather Roundup
Issued by NWS Kansas City/Pleasant Hill, MO

Home | Current Version | Previous Version | Graphics & Text | Print | Product List | Glossary Off
Versions: 1 2 3 4 5 6 7 8 9 10 11 12 13 14 15 16 17 18 19 20 21 22 23 24 25 26 27 28 29 30 31 32 33 34 35 36 37 38 39 40 41 42 43 44 45 46 47 48 49 50

000
ASUS43 KEAX 281910
RWREAX

WEATHER ROUNDUP FOR EASTERN KANSAS AND NORTHWEST MISSOURI
NATIONAL WEATHER SERVICE KANSAS CITY/PLEASANT HILL MO
200 PM CDT WED JUN 28 2017

KSZ040-057-103>105-MOZ028-029-037-043-282000-
...KANSAS CITY METROPOLITAN AREA...

CITY           SKY/WX    TMP DP  RH WIND       PRES   REMARKS
K.C. INTL      MOSUNNY   87  71  58 SW24G36   29.78F HX  93
K.C. DOWNTOWN  SUNNY     89  71  55 S22G30    29.78F HX  95
LEES SUMMIT    PTSUNNY   87  71  58 S18G29    29.82F HX  93
OLATHE - IXD   SUNNY     88  69  53 S24G32    29.81F HX  92
OLATHE - OJC   PTSUNNY   85  71  63 S21G30    29.81F HX  90
LAWRENCE       MOSUNNY   89  72  56 S15G29    29.78F HX  96

$$

MOZ001>008-011>017-020>025-030>033-038>040-044>046-053-054-282000-
...NORTHERN AND CENTRAL MISSOURI...

CITY           SKY/WX    TMP DP  RH WIND       PRES   REMARKS
ST. JOSEPH     MOSUNNY   87  73  62 S18G28    29.74F HX  94
MOSBY          MOCLDY    86  68  54 SW16G24   29.79F
WARRENSBURG    MOSUNNY   86  68  54 S15G25    29.83F
WHITEMAN AFB   MOSUNNY   86  73  65 SW26G32   29.83S HX  93
CLINTON        MOSUNNY   84  72  65 S15G21    29.87S
SEDALIA        MOSUNNY   86  73  65 S17G29    29.88S HX  93
WARSAW         NOT AVBL
CHILLICOTHE      N/A     85  71  63 S17G25    29.80F HX  90
KIRKSVILLE     CLOUDY    84  71  65 S16       29.83F

$$

MOZ041-047>049-056>058-063>065-088>090-097-282000-
...EASTERN AND SOUTHERN MISSOURI...

CITY           SKY/WX    TMP DP  RH WIND       PRES   REMARKS
ST. LOUIS INTL CLOUDY    88  60  38 SW20G28   29.94F
SPIRIT OF STL  PTSUNNY   84  64  50 S14G22    29.93F
COLUMBIA       SUNNY     84  69  60 S21G29    29.87F
JEFFERSON CITY SUNNY     85  66  53 S16G30    29.87F
ROLLA          MOSUNNY   85  65  51 S17G26    29.94F
OSAGE BEACH    MOSUNNY   86  69  56 S15       29.91F HX  90
SPRINGFIELD    SUNNY     84  69  60 S20       29.93F
BRANSON        PTSUNNY   84  66  54 S9        29.99F
JOPLIN         SUNNY     88  71  57 S21G32    29.88F HX  94
WEST PLAINS    MOSUNNY   83  63  50 S16       30.01F

$$

IAZ060-094-KSZ022-034>040-054-083-096-NEZ052-066-093-282000-
...KANSAS...SOUTHEAST NEBRASKA AND IOWA...

CITY           SKY/WX    TMP DP  RH WIND       PRES   REMARKS
TOPEKA         MOSUNNY   89  72  56 S15G28    29.75F HX  96
MANHATTAN      SUNNY     95  69  42 SW22G32   29.72F HX 100
EMPORIA        SUNNY     89  70  53 S23G36    29.79F HX  94
CHANUTE        MOSUNNY   90  69  50 S21G33    29.84F HX  94
WICHITA        MOSUNNY   91  68  46 S25G31    29.77F HX  95
OMAHA          PTSUNNY   85  70  60 SW14      29.66F
LINCOLN        PTSUNNY   87  70  56 W14       29.68F HX  92
FALLS CITY     MOSUNNY   87  71  58 SW15G26   29.70F HX  93
LAMONI         PTSUNNY   82  71  69 SW21G31   29.76S
DES MOINES     PTSUNNY   83  69  62 SW17G31   29.70R

$$




USA.gov is the U.S. government's official web portal to all federal, state and local government web resources and services.